Regional Weather Roundup
Issued by NWS Mt. Holly, NJ

Home | Current Version | Previous Version | Text Only | Print | Product List | Glossary On
Versions: 1 2 3 4 5 6 7 8 9 10 11 12 13 14 15 16 17 18 19 20 21 22 23 24 25 26 27 28 29 30 31 32 33 34 35 36 37 38 39 40 41 42 43 44 45 46 47 48 49 50
000
ASUS41 KPHI 230310
RWRPHI

REGIONAL WEATHER ROUNDUP
NATIONAL WEATHER SERVICE MOUNT HOLLY NJ
1000 PM EST MON DEC 22 2014

NOTE:  "FAIR" INDICATES FEW OR NO CLOUDS BELOW 12,000 FEET WITH NO
SIGNIFICANT WEATHER AND/OR OBSTRUCTIONS TO VISIBILITY.

 * = STATION DOES NOT REPORT PRECIPITATION (E.G. RAIN, SNOW, ETC.)
        OR FOG.

NJZ015>026-230400-
SOUTHERN NEW JERSEY

CITY           SKY/WX    TMP DP  RH WIND       PRES   REMARKS
POMONA         CLOUDY    43  41  93 NE6       30.14F
RIO GRANDE*    CLOUDY    46  41  81 NE10G17   30.09S
MILLVILLE      CLOUDY    42  40  92 NE10      30.11F
WRIGHTSTOWN    LGT RAIN  41  41 100 N5        30.14S
MOUNT HOLLY    LGT RAIN  41  39  93 VRB3      30.16S FOG
TRENTON        LGT RAIN  42  39  89 NE8       30.15F FOG

$$
NJZ001>014-230400-
NORTHERN NEW JERSEY

CITY           SKY/WX    TMP DP  RH WIND       PRES   REMARKS
SUSSEX         LGT RAIN  36  34  92 E5        30.21F FOG     WCI  32
ANDOVER*       NOT AVBL
MORRISTOWN     DRIZZLE   45  41  87 CALM      30.20F
NEWARK         LGT RAIN  45  42  89 NE7       30.20S
TETERBORO      LGT RAIN  44  41  89 NE7       30.21R FOG
CALDWELL       LGT RAIN  43  31  62 E8        30.21R
SOMERVILLE     LGT RAIN  42  39  89 N3        30.17F FOG
ALLAIRE*       CLOUDY    48  43  81 E9G16     30.17R
TOMS RIVER*    CLOUDY    43  41  93 CALM      30.17R

$$
PAZ043-044-047-054-055-060>062-066>071-230400-
EASTERN PENNSYLVANIA

CITY           SKY/WX    TMP DP  RH WIND       PRES   REMARKS
PHILADELPHIA   LGT RAIN  42  39  89 NE8       30.14F FOG
NORTH PHILA    LGT RAIN  43  38  82 NE9       30.16F
BLUE BELL      CLOUDY    41  41 100 NE3       30.14F
DOYLESTOWN     LGT RAIN  39  39 100 NE3       30.15F FOG
QUAKERTOWN*    CLOUDY    37  37 100 NE3       30.16F
POTTSTOWN      CLOUDY    39  38  96 NE5       30.16F FOG
LANCASTER      LGT RAIN  36  35  96 E3        30.13F FOG
COATESVILLE    LGT RAIN  39  39 100 CALM      30.14S
READING        CLOUDY    37  36  96 NE7       30.14F FOG     WCI  32
ALLENTOWN      CLOUDY    37  34  89 E5        30.17F FOG     WCI  33
MOUNT POCONO   FOG       33  33 100 E9        30.11F VSB 1/4 WCI  25
HAZLETON       CLOUDY    36  36 100 E5        30.13F FOG     WCI  32
WILKES BARRE   CLOUDY    40  35  83 N3        30.13F

$$
DEZALL-MDZ008-012-015-019-020-230400-
DELAWARE AND EASTERN MARYLAND

CITY           SKY/WX    TMP DP  RH WIND       PRES   REMARKS
WILMINGTON     LGT RAIN  42  39  89 NE8       30.15S FOG
DOVER          LGT RAIN  42  42 100 NW7       30.12R
GEORGETOWN     CLOUDY    44  42  93 N8        30.11R
EASTON         CLOUDY    42  42 100 NE7       30.12F FOG
PATUXENT       CLOUDY    40  38  93 N9        30.06F FOG     WCI  34
OCEAN CITY     CLOUDY    51  47  86 E10       30.07S
WALLOPS ISLAND CLOUDY    49  48  97 NE15      30.04F
CAMBRIDGE      CLOUDY    43  39  87 NE7       30.06F
SALISBURY      CLOUDY    49  45  86 NE7       30.07S

$$
PAZ001-021-NYZ056-072-MDZ011-DCZ001-230400-
OTHER NEARBY LOCATIONS

CITY           SKY/WX    TMP DP  RH WIND       PRES   REMARKS
HARRISBURG     LGT RAIN  33  33 100 N5        30.14F FOG     WCI  29
STATE COLLEGE  MIX PCPN  32  31  97 NW3       30.11S
WILLIAMSPORT   FRZ RAIN  33  30  88 E3        30.15S FOG
BINGHAMTON     CLOUDY    34  33  96 S9        30.10F WCI  27
NEW YORK CITY  LGT RAIN  44  41  89 E7        30.23  FOG
BALTIMORE      CLOUDY    38  36  92 N6        30.11F FOG     WCI  33
WASHINGTON DC  DRIZZLE   39  34  82 N7        30.12F WCI  34

$$


USA.gov is the U.S. government's official web portal to all federal, state and local government web resources and services.